[keps] orb10230.amsat

Ray Hoad ray.hoad at mypbmail.com
Wed Aug 18 19:40:21 PDT 2010


SB KEPS @ AMSAT  $ORB10230.O
Orbital Elements  10230.OSCAR

HR AMSAT ORBITAL ELEMENTS FOR OSCAR SATELLITES
FROM WA5QGD FORT WORTH,TX August 18, 2010
Send Subscribe/unsubscribe to KEPS at http://www.amsat.org/mailman/listinfo/keps
BID: ORB10230.O
TO ALL RADIO AMATEURS BT

Satellite: AO-07
Catalog number: 07530
Epoch time:      10230.61116324
Element set:     856
Inclination:      101.4010 deg
RA of node:       244.0552 deg
Eccentricity:    0.0011679
Arg of perigee:   150.3373 deg
Mean anomaly:     209.8361 deg
Mean motion:   12.53579270 rev/day
Decay rate:       -2.7e-07 rev/day^2
Epoch rev:           63627
Checksum:              261

Satellite: FO-29
Catalog number: 24278
Epoch time:      10230.88902293
Element set:     375
Inclination:      098.5162 deg
RA of node:       051.3533 deg
Eccentricity:    0.0350457
Arg of perigee:   321.3554 deg
Mean anomaly:     036.2973 deg
Mean motion:   13.52952142 rev/day
Decay rate:        1.9e-07 rev/day^2
Epoch rev:           69158
Checksum:              308

Satellite: SO-33
Catalog number: 25509
Epoch time:      10229.20731480
Element set:    0776
Inclination:      031.4297 deg
RA of node:       163.4491 deg
Eccentricity:    0.0353567
Arg of perigee:   103.5362 deg
Mean anomaly:     260.4901 deg
Mean motion:   14.28323975 rev/day
Decay rate:       1.50e-06 rev/day^2
Epoch rev:           61678
Checksum:              299

Satellite: RS-22
Catalog number: 27939
Epoch time:      10230.68553503
Element set:     462
Inclination:      097.8831 deg
RA of node:       093.4933 deg
Eccentricity:    0.0012767
Arg of perigee:   218.8032 deg
Mean anomaly:     141.2252 deg
Mean motion:   14.63443718 rev/day
Decay rate:       1.70e-06 rev/day^2
Epoch rev:           36809
Checksum:              303

Satellite: VO-52
Catalog number: 28650
Epoch time:      10230.79943791
Element set:     576
Inclination:      097.6873 deg
RA of node:       281.7750 deg
Eccentricity:    0.0028408
Arg of perigee:   072.5614 deg
Mean anomaly:     287.9076 deg
Mean motion:   14.81790206 rev/day
Decay rate:      -3.62e-06 rev/day^2
Epoch rev:           28596
Checksum:              347

Satellite: SO-67
Catalog number: 35870
Epoch time:      10230.88361234
Element set:      21
Inclination:      097.3264 deg
RA of node:       278.3450 deg
Eccentricity:    0.0001600
Arg of perigee:   216.8094 deg
Mean anomaly:     256.9864 deg
Mean motion:   15.21006179 rev/day
Decay rate:       6.86e-06 rev/day^2
Epoch rev:            5098
Checksum:              301

Satellite: HO-68
Catalog number: 36122
Epoch time:      10230.65081566
Element set:     589
Inclination:      100.4635 deg
RA of node:       290.4335 deg
Eccentricity:    0.0007318
Arg of perigee:   192.1137 deg
Mean anomaly:     167.9806 deg
Mean motion:   13.16281651 rev/day
Decay rate:       -4.5e-07 rev/day^2
Epoch rev:            3243
Checksum:              285

/EX
SB KEPS @ AMSAT  $ORB10230.D
Orbital Elements  10230.MICROS

HR AMSAT ORBITAL ELEMENTS FOR THE MICROSATS
FROM WA5QGD FORT WORTH,TX August 18, 2010
Send Subscribe/unsubscribe to KEPS at http://www.amsat.org/mailman/listinfo/keps
BID: ORB10230.D
TO ALL RADIO AMATEURS BT

Satellite: UO-11
Catalog number: 14781
Epoch time:      10229.35089510
Element set:    0317
Inclination:      098.0499 deg
RA of node:       281.2611 deg
Eccentricity:    0.0009916
Arg of perigee:   045.8520 deg
Mean anomaly:     314.3501 deg
Mean motion:   14.79825238 rev/day
Decay rate:       -2.1e-07 rev/day^2
Epoch rev:           42085
Checksum:              288

Satellite: AO-16
Catalog number: 20439
Epoch time:      10230.38134572
Element set:     972
Inclination:      098.3372 deg
RA of node:       185.8564 deg
Eccentricity:    0.0010968
Arg of perigee:   347.4249 deg
Mean anomaly:     012.6670 deg
Mean motion:   14.31870320 rev/day
Decay rate:     -.00000000 rev/day^2
Epoch rev:            7428
Checksum:              284

Satellite: LO-19
Catalog number: 20442
Epoch time:      10229.81014937
Element set:    0883
Inclination:      098.2985 deg
RA of node:       190.8603 deg
Eccentricity:    0.0011612
Arg of perigee:   343.2080 deg
Mean anomaly:     016.8729 deg
Mean motion:   14.32100346 rev/day
Decay rate:       -3.2e-07 rev/day^2
Epoch rev:           07437
Checksum:              282

Satellite: AO-27
Catalog number: 22825
Epoch time:      10230.38694196
Element set:     604
Inclination:      098.4891 deg
RA of node:       176.7407 deg
Eccentricity:    0.0009339
Arg of perigee:   085.1833 deg
Mean anomaly:     275.0428 deg
Mean motion:   14.29304930 rev/day
Decay rate:        1.7e-07 rev/day^2
Epoch rev:           88093
Checksum:              323

Satellite: IO-26
Catalog number: 22826
Epoch time:      10229.81133248
Element set:     341
Inclination:      098.4825 deg
RA of node:       176.7579 deg
Eccentricity:    0.0009949
Arg of perigee:   082.9815 deg
Mean anomaly:     277.2512 deg
Mean motion:   14.29561845 rev/day
Decay rate:        1.3e-07 rev/day^2
Epoch rev:           88096
Checksum:              339

Satellite: GO-32
Catalog number: 25397
Epoch time:      10230.46172923
Element set:     261
Inclination:      098.3146 deg
RA of node:       234.4873 deg
Eccentricity:    0.0002272
Arg of perigee:   086.7806 deg
Mean anomaly:     273.3642 deg
Mean motion:   14.23183873 rev/day
Decay rate:       1.41e-06 rev/day^2
Epoch rev:           62890
Checksum:              298

Satellite: NO-44
Catalog number: 26931
Epoch time:      10230.74859767
Element set:     536
Inclination:      067.0524 deg
RA of node:       042.7879 deg
Eccentricity:    0.0005069
Arg of perigee:   266.1758 deg
Mean anomaly:     093.8735 deg
Mean motion:   14.29606802 rev/day
Decay rate:      -1.39e-06 rev/day^2
Epoch rev:           46369
Checksum:              343

Satellite: SO-50
Catalog number: 27607
Epoch time:      10229.30738880
Element set:    0249
Inclination:      064.5579 deg
RA of node:       170.8680 deg
Eccentricity:    0.0038130
Arg of perigee:   049.2539 deg
Mean anomaly:     311.1880 deg
Mean motion:   14.71565172 rev/day
Decay rate:       1.02e-06 rev/day^2
Epoch rev:           41137
Checksum:              296

Satellite: CO-55
Catalog number: 27844
Epoch time:      10230.49311076
Element set:     915
Inclination:      098.7104 deg
RA of node:       238.5758 deg
Eccentricity:    0.0010311
Arg of perigee:   357.2890 deg
Mean anomaly:     002.8239 deg
Mean motion:   14.20723720 rev/day
Decay rate:        4.2e-07 rev/day^2
Epoch rev:           36993
Checksum:              293

Satellite: CO-57
Catalog number: 27848
Epoch time:      10230.53181900
Element set:     863
Inclination:      098.7160 deg
RA of node:       237.7207 deg
Eccentricity:    0.0010214
Arg of perigee:   001.2292 deg
Mean anomaly:     358.8908 deg
Mean motion:   14.20515346 rev/day
Decay rate:        4.3e-07 rev/day^2
Epoch rev:           36989
Checksum:              299

Satellite: AO-51
Catalog number: 28375
Epoch time:      10229.47447537
Element set:    0752
Inclination:      098.0662 deg
RA of node:       219.4935 deg
Eccentricity:    0.0083225
Arg of perigee:   272.0608 deg
Mean anomaly:     087.1053 deg
Mean motion:   14.40694716 rev/day
Decay rate:        2.2e-07 rev/day^2
Epoch rev:           32233
Checksum:              303

Satellite: GENESAT1
Catalog number: 29655
Epoch time:      10216.61700559
Element set:     226
Inclination:      040.0059 deg
RA of node:       067.3006 deg
Eccentricity:    0.0005079
Arg of perigee:   297.8744 deg
Mean anomaly:     064.7087 deg
Mean motion:   16.44862838 rev/day
Decay rate:  1.0637092e-01 rev/day^2
Epoch rev:           20777
Checksum:              320

Satellite: CP3
Catalog number: 31129
Epoch time:      10230.49984894
Element set:     653
Inclination:      097.9353 deg
RA of node:       266.7236 deg
Eccentricity:    0.0103609
Arg of perigee:   041.1302 deg
Mean anomaly:     319.7640 deg
Mean motion:   14.52292469 rev/day
Decay rate:       1.61e-06 rev/day^2
Epoch rev:           17690
Checksum:              306

Satellite: CO-65
Catalog number: 32785
Epoch time:      10230.22665662
Element set:     760
Inclination:      097.8907 deg
RA of node:       294.2807 deg
Eccentricity:    0.0016142
Arg of perigee:   083.0136 deg
Mean anomaly:     277.2888 deg
Mean motion:   14.81700658 rev/day
Decay rate:       5.92e-06 rev/day^2
Epoch rev:           12467
Checksum:              325

Satellite: KKS-1
Catalog number: 33493
Epoch time:      10230.68085282
Element set:     768
Inclination:      098.0917 deg
RA of node:       350.7284 deg
Eccentricity:    0.0018844
Arg of perigee:   301.5994 deg
Mean anomaly:     058.3382 deg
Mean motion:   14.81067431 rev/day
Decay rate:       5.28e-06 rev/day^2
Epoch rev:            8473
Checksum:              319

Satellite: SOHLA-1
Catalog number: 33496
Epoch time:      10229.85142797
Element set:    0181
Inclination:      098.0614 deg
RA of node:       338.1405 deg
Eccentricity:    0.0006918
Arg of perigee:   016.7129 deg
Mean anomaly:     343.4281 deg
Mean motion:   14.69508988 rev/day
Decay rate:       -1.7e-07 rev/day^2
Epoch rev:           08393
Checksum:              321

Satellite: TISAT-1
Catalog number: 36799
Epoch time:      10229.77494666
Element set:    0055
Inclination:      098.1427 deg
RA of node:       289.4499 deg
Eccentricity:    0.0015969
Arg of perigee:   172.1626 deg
Mean anomaly:     187.9811 deg
Mean motion:   14.80143140 rev/day
Decay rate:       1.19e-06 rev/day^2
Epoch rev:           00542
Checksum:              332

